K6PKL-2 Weather Reports


Display with metric or nautical units.
time (UTC)temp
F
wind
direction
speed
MPH
gust
MPH
rain 1hr
in
rain 24hr
in
rain mn
in
humidity
%
barometer
mb
20260831132312 61 342 3.0 5.0 0.00 0.00 0.00 77 1015.9
20260831131913 61 270 3.0 4.0 0.00 0.00 0.00 77 1016.0
20260831131512 62 348 4.0 4.0 0.00 0.00 0.00 77 1016.0
20260831131113 62 292 1.0 6.0 0.00 0.00 0.00 77 1016.0
20260831130712 62 9 3.0 6.0 0.00 0.00 0.00 76 1015.9
20260831130312 62 306 2.0 7.0 0.00 0.00 0.00 76 1015.8
20260831125911 62 303 3.0 7.0 0.00 0.00 0.00 76 1015.8
20260831125512 62 0 3.0 6.0 0.00 0.00 0.00 76 1015.8
20260831124712 62 270 3.0 6.0 0.00 0.00 0.00 76 1015.7
20260831124311 62 337 1.0 8.0 0.00 0.00 0.00 75 1015.8
20260831123111 62 2 4.0 7.0 0.00 0.00 0.00 75 1015.6
20260831122711 62 270 2.0 7.0 0.00 0.00 0.00 74 1015.7
20260831121908 62 227 3.0 4.0 0.00 0.00 0.00 74 1015.6
20260831121507 62 315 4.0 7.0 0.00 0.00 0.00 74 1015.5
20260831121107 63 330 3.0 5.0 0.00 0.00 0.00 74 1015.4
20260831120707 63 315 2.0 6.0 0.00 0.00 0.00 73 1015.5
20260831120307 63 328 4.0 5.0 0.00 0.00 0.00 73 1015.5
20260831115907 63 0 3.0 4.0 0.00 0.00 0.00 73 1015.4
20260831115506 63 315 3.0 5.0 0.00 0.00 0.00 72 1015.5
20260831115106 63 346 5.0 5.0 0.00 0.00 0.00 72 1015.4
20260831114706 63 312 2.0 4.0 0.00 0.00 0.00 72 1015.5
20260831114306 63 315 2.0 3.0 0.00 0.00 0.00 71 1015.5
20260831113906 63 229 2.0 3.0 0.00 0.00 0.00 72 1015.5
20260831113506 63 264 1.0 2.0 0.00 0.00 0.00 71 1015.5
20260831112706 63 225 2.0 4.0 0.00 0.00 0.00 71 1015.5
20260831112307 63 357 3.0 4.0 0.00 0.00 0.00 71 1015.4
20260831111905 63 344 2.0 2.0 0.00 0.00 0.00 70 1015.5
20260831111505 63 225 1.0 3.0 0.00 0.00 0.00 70 1015.4
20260831111105 63 288 2.0 4.0 0.00 0.00 0.00 70 1015.4
20260831110705 64 299 2.0 5.0 0.00 0.00 0.00 70 1015.4
20260831110304 64 225 2.0 3.0 0.00 0.00 0.00 69 1015.4
20260831105953 64 270 2.0 4.0 0.00 0.00 0.00 69 1015.4
20260831105905 64 270 2.0 4.0 0.00 0.00 0.00 69 1015.4
20260831105505 64 270 2.0 4.0 0.00 0.00 0.00 69 1015.3
20260831105104 64 274 2.0 6.0 0.00 0.00 0.00 69 1015.4
20260831104704 64 310 3.0 4.0 0.00 0.00 0.00 68 1015.3
20260831104304 64 317 1.0 5.0 0.00 0.00 0.00 68 1015.3
20260831103903 65 319 3.0 4.0 0.00 0.00 0.00 68 1015.4
20260831103100 65 333 2.0 6.0 0.00 0.00 0.00 67 1015.3
20260831102300 65 321 2.0 2.0 0.00 0.00 0.00 66 1015.3
20260831101900 65 315 1.0 4.0 0.00 0.00 0.00 66 1015.3
20260831101500 65 315 3.0 4.0 0.00 0.00 0.00 66 1015.3
20260831101059 66 0 1.0 6.0 0.00 0.00 0.00 66 1015.3
20260831100659 66 333 3.0 4.0 0.00 0.00 0.00 65 1015.3
20260831100259 66 0 2.0 4.0 0.00 0.00 0.00 65 1015.3
20260831095859 66 301 2.0 4.0 0.00 0.00 0.00 65 1015.3
20260831095459 66 292 1.0 4.0 0.00 0.00 0.00 64 1015.2
20260831095059 66 330 2.0 4.0 0.00 0.00 0.00 64 1015.2
20260831094659 66 342 3.0 4.0 0.00 0.00 0.00 64 1015.2
20260831093858 67 0 1.0 5.0 0.00 0.00 0.00 63 1015.1
20260831093458 67 315 0.0 4.0 0.00 0.00 0.00 63 1015.2
20260831093059 67 326 2.0 5.0 0.00 0.00 0.00 63 1015.1
20260831092658 67 295 1.0 4.0 0.00 0.00 0.00 63 1015.0
20260831092258 67 315 2.0 4.0 0.00 0.00 0.00 63 1015.1
20260831091858 67 308 1.0 4.0 0.00 0.00 0.00 62 1015.0
20260831091458 67 225 2.0 4.0 0.00 0.00 0.00 62 1015.1
20260831091057 67 319 2.0 4.0 0.00 0.00 0.00 62 1015.1
20260831090657 67 328 3.0 5.0 0.00 0.00 0.00 62 1015.0
20260831090257 68 357 5.0 5.0 0.00 0.00 0.00 62 1015.1
20260831085858 68 333 0.0 4.0 0.00 0.00 0.00 62 1015.2
20260831085057 68 2 3.0 3.0 0.00 0.00 0.00 61 1015.1
20260831084656 68 315 1.0 4.0 0.00 0.00 0.00 61 1015.1
20260831084256 68 339 1.0 2.0 0.00 0.00 0.00 59 1015.2
20260831083856 68 0 2.0 3.0 0.00 0.00 0.00 60 1015.1
20260831083456 69 45 0.0 2.0 0.00 0.00 0.00 59 1015.1
20260831083056 69 45 2.0 3.0 0.00 0.00 0.00 59 1015.3
20260831082656 69 45 1.0 2.0 0.00 0.00 0.00 58 1015.3
20260831082256 69 45 2.0 2.0 0.00 0.00 0.00 58 1015.3
20260831081856 69 45 1.0 3.0 0.00 0.00 0.00 58 1015.3
20260831081455 69 45 1.0 2.0 0.00 0.00 0.00 58 1015.3
20260831081055 69 11 2.0 3.0 0.00 0.00 0.00 57 1015.3
20260831080655 69 0 2.0 2.0 0.00 0.00 0.00 57 1015.3
20260831080255 69 22 0.0 3.0 0.00 0.00 0.00 57 1015.3
20260831075855 69 45 1.0 2.0 0.00 0.00 0.00 57 1015.3
20260831075455 69 45 1.0 2.0 0.00 0.00 0.00 56 1015.4
20260831075055 69 45 1.0 2.0 0.00 0.00 0.00 56 1015.4
20260831074654 69 45 1.0 3.0 0.00 0.00 0.00 56 1015.5
20260831074254 70 45 3.0 3.0 0.00 0.00 0.00 57 1015.4
20260831073855 70 353 2.0 3.0 0.00 0.00 0.00 57 1015.4
20260831073455 70 2 2.0 3.0 0.00 0.00 0.00 57 1015.4
20260831073054 70 0 1.0 2.0 0.00 0.00 0.00 57 1015.3
20260831072254 70 0 1.0 3.0 0.00 0.00 0.00 57 1015.4
20260831071854 70 0 2.0 2.0 0.00 0.00 0.00 57 1015.4
20260831071453 70 315 2.0 3.0 0.00 0.00 0.00 56 1015.3
20260831071053 70 315 1.0 2.0 0.00 0.00 0.00 55 1015.3
20260831070653 70 279 1.0 3.0 0.00 0.00 0.00 55 1015.3
20260831070253 70 6 3.0 3.0 0.00 0.00 0.00 55 1015.3
20260831065853 70 319 2.0 5.0 0.00 0.00 0.00 55 1015.2
20260831065453 70 357 2.0 6.0 0.00 0.00 0.00 54 1015.2
20260831065053 70 247 0.0 4.0 0.00 0.00 0.00 54 1015.2
20260831064653 70 281 2.0 3.0 0.00 0.00 0.00 54 1015.2
20260831064252 71 283 1.0 4.0 0.00 0.00 0.00 54 1015.3
20260831063852 71 290 3.0 4.0 0.00 0.00 0.00 54 1015.2
20260831063452 71 306 2.0 6.0 0.00 0.00 0.00 53 1015.2
20260831063052 71 279 1.0 3.0 0.00 0.00 0.00 53 1015.3
20260831062652 71 337 1.0 4.0 0.00 0.00 0.00 53 1015.3
20260831062251 71 192 1.0 5.0 0.00 0.00 0.00 53 1015.3
20260831061851 71 225 3.0 7.0 0.00 0.00 0.00 53 1015.3
20260831061451 72 261 3.0 5.0 0.00 0.00 0.00 52 1015.4
20260831061051 72 306 1.0 5.0 0.00 0.00 0.00 52 1015.4
20260831060651 72 297 1.0 5.0 0.00 0.00 0.00 53 1015.3
20260831060251 72 321 4.0 6.0 0.00 0.00 0.00 51 1015.4
20260831055851 72 252 2.0 3.0 0.00 0.00 0.00 50 1015.4
20260831055450 72 180 1.0 5.0 0.00 0.00 0.00 50 1015.4
20260831055051 72 267 1.0 5.0 0.00 0.00 0.00 50 1015.4
20260831054651 73 234 3.0 8.0 0.00 0.00 0.00 50 1015.5
20260831054252 73 321 5.0 6.0 0.00 0.00 0.00 50 1015.4
20260831053450 73 18 2.0 7.0 0.00 0.00 0.00 48 1015.5
20260831053051 74 328 6.0 7.0 0.00 0.00 0.00 48 1015.5
20260831052649 74 292 3.0 6.0 0.00 0.00 0.00 47 1015.5
20260831052250 74 328 4.0 7.0 0.00 0.00 0.00 47 1015.5
20260831051850 74 250 3.0 6.0 0.00 0.00 0.00 46 1015.5
20260831051450 75 306 4.0 10.0 0.00 0.00 0.00 46 1015.4
20260831051049 75 249 5.0 6.0 0.00 0.00 0.00 46 1015.5
20260831050649 75 256 7.0 7.0 0.00 0.00 0.00 45 1015.5
20260831050249 75 234 3.0 6.0 0.00 0.00 0.00 45 1015.4
20260831045849 76 280 3.0 8.0 0.00 0.00 0.00 45 1015.5
20260831045449 76 243 3.0 6.0 0.00 0.00 0.00 44 1015.5
20260831045049 76 312 5.0 6.0 0.00 0.00 0.00 44 1015.5
20260831044649 77 274 2.0 6.0 0.00 0.00 0.00 44 1015.6
20260831044249 77 263 4.0 6.0 0.00 0.00 0.00 43 1015.5
20260831043848 77 318 1.0 9.0 0.00 0.00 0.00 43 1015.4
20260831043448 78 247 6.0 6.0 0.00 0.00 0.00 43 1015.5
20260831043047 78 279 2.0 6.0 0.00 0.00 0.00 43 1015.5
20260831042647 78 297 2.0 6.0 0.00 0.00 0.00 42 1015.4
20260831042247 79 326 6.0 6.0 0.00 0.00 0.00 43 1015.4
20260831041848 79 315 3.0 3.0 0.00 0.00 0.00 43 1015.3
20260831041448 79 236 2.0 3.0 0.00 0.00 0.00 42 1015.4
20260831041047 79 315 2.0 5.0 0.00 0.00 0.00 42 1015.2
20260831040857 73 357 2.0 3.0 0.00 0.00 0.00 57 1018.1
20260831040647 80 305 3.0 4.0 0.00 0.00 0.00 42 1015.2
20260831040247 80 230 3.0 3.0 0.00 0.00 0.00 42 1015.2
20260831035847 80 288 3.0 6.0 0.00 0.00 0.00 41 1015.2
20260831035447 81 231 6.0 6.0 0.00 0.00 0.00 41 1015.2
20260831035047 81 270 1.0 4.0 0.00 0.00 0.00 40 1015.2
20260831034647 81 299 2.0 3.0 0.00 0.00 0.00 41 1015.2
20260831033846 82 299 3.0 5.0 0.00 0.00 0.00 40 1015.1
20260831033446 82 306 3.0 7.0 0.00 0.00 0.00 40 1015.1
20260831033046 83 209 6.0 6.0 0.00 0.00 0.00 39 1015.0
20260831032646 83 240 3.0 5.0 0.00 0.00 0.00 40 1014.9
20260831032246 84 222 4.0 6.0 0.00 0.00 0.00 39 1015.0
20260831031846 84 229 2.0 6.0 0.00 0.00 0.00 39 1014.9
20260831031445 85 236 2.0 7.0 0.00 0.00 0.00 39 1014.9
20260831031045 85 242 3.0 6.0 0.00 0.00 0.00 38 1014.9
20260831030645 85 280 4.0 5.0 0.00 0.00 0.00 37 1014.8
20260831030245 86 243 2.0 5.0 0.00 0.00 0.00 38 1014.8
20260831025845 86 272 0.0 4.0 0.00 0.00 0.00 36 1014.7
20260831025445 86 225 1.0 4.0 0.00 0.00 0.00 36 1014.7
20260831025045 87 315 2.0 4.0 0.00 0.00 0.00 36 1014.7
20260831024644 87 315 3.0 4.0 0.00 0.00 0.00 36 1014.6
20260831024244 88 263 3.0 4.0 0.00 0.00 0.00 36 1014.6
20260831023844 88 328 2.0 4.0 0.00 0.00 0.00 35 1014.6
20260831023444 89 310 4.0 4.0 0.00 0.00 0.00 35 1014.6
20260831022644 90 315 1.0 3.0 0.00 0.00 0.00 34 1014.4
20260831022244 90 321 1.0 4.0 0.00 0.00 0.00 34 1014.4
20260831021844 91 301 3.0 6.0 0.00 0.00 0.00 34 1014.5
20260831021443 91 357 3.0 4.0 0.00 0.00 0.00 33 1014.5
20260831021043 92 324 3.0 6.0 0.00 0.00 0.00 33 1014.5
20260831020643 92 308 3.0 6.0 0.00 0.00 0.00 33 1014.4
20260831020243 93 315 2.0 4.0 0.00 0.00 0.00 32 1014.4
20260831015443 94 344 5.0 6.0 0.00 0.00 0.00 31 1014.5
20260831014642 95 270 0.0 3.0 0.00 0.00 0.00 31 1014.4
20260831014242 94 324 0.0 4.0 0.00 0.00 0.00 32 1014.4
20260831013842 93 229 2.0 5.0 0.00 0.00 0.00 32 1014.4
20260831013442 93 11 3.0 4.0 0.00 0.00 0.00 33 1014.4
20260831013042 92 40 3.0 4.0 0.00 0.00 0.00 33 1014.4
20260831012642 92 353 3.0 5.0 0.00 0.00 0.00 33 1014.4
20260831012242 92 355 4.0 5.0 0.00 0.00 0.00 33 1014.4
20260831011441 92 238 2.0 3.0 0.00 0.00 0.00 33 1014.4
20260831011041 91 292 2.0 5.0 0.00 0.00 0.00 33 1014.4
20260831010641 91 353 2.0 4.0 0.00 0.00 0.00 33 1014.4
20260831010241 91 0 3.0 5.0 0.00 0.00 0.00 33 1014.5
20260831005841 91 346 4.0 5.0 0.00 0.00 0.00 33 1014.5
20260831005441 90 355 2.0 8.0 0.00 0.00 0.00 33 1014.5
20260831005040 90 4 8.0 8.0 0.00 0.00 0.00 33 1014.5
20260831004640 90 236 1.0 3.0 0.00 0.00 0.00 33 1014.6
20260831004240 90 281 1.0 5.0 0.00 0.00 0.00 33 1014.5
20260831003840 90 321 4.0 6.0 0.00 0.00 0.00 33 1014.6
20260831003440 90 315 0.0 5.0 0.00 0.00 0.00 34 1014.5
20260831003040 90 256 1.0 5.0 0.00 0.00 0.00 33 1014.6
20260831002640 90 339 2.0 4.0 0.00 0.00 0.00 33 1014.5
20260831002239 90 312 2.0 4.0 0.00 0.00 0.00 34 1014.6
20260831001039 89 315 2.0 5.0 0.00 0.00 0.00 34 1014.6
20260831000639 89 290 2.0 5.0 0.00 0.00 0.00 34 1014.6
20260830235840 89 306 1.0 6.0 0.00 0.00 0.00 34 1014.7
20260830235439 89 17 3.0 6.0 0.00 0.00 0.00 34 1014.7
20260830235038 89 249 3.0 6.0 0.00 0.00 0.00 34 1014.7
20260830234717 89 54 1.0 6.0 0.00 0.00 0.00 34 1014.7
20260830234638 89 54 1.0 6.0 0.00 0.00 0.00 34 1014.7
20260830234238 89 0 1.0 6.0 0.00 0.00 0.00 33 1014.8
20260830233838 89 272 1.0 4.0 0.00 0.00 0.00 35 1014.8
20260830233438 89 297 3.0 6.0 0.00 0.00 0.00 34 1014.9
20260830232638 88 353 4.0 4.0 0.00 0.00 0.00 35 1015.0
20260830232237 88 207 3.0 5.0 0.00 0.00 0.00 35 1014.9
20260830231838 88 340 2.0 3.0 0.00 0.00 0.00 35 1015.0
20260830231437 88 12 1.0 6.0 0.00 0.00 0.00 35 1015.0
20260830231037 88 261 2.0 7.0 0.00 0.00 0.00 35 1015.1
20260830230637 88 315 1.0 4.0 0.00 0.00 0.00 35 1015.1
20260830230237 88 225 5.0 7.0 0.00 0.00 0.00 36 1015.2
20260830225036 87 6 2.0 7.0 0.00 0.00 0.00 37 1015.2
20260830224636 87 13 3.0 6.0 0.00 0.00 0.00 37 1015.3
20260830223836 87 328 2.0 5.0 0.00 0.00 0.00 37 1015.4
20260830223436 87 346 4.0 5.0 0.00 0.00 0.00 37 1015.4
20260830223036 87 342 3.0 7.0 0.00 0.00 0.00 37 1015.5
20260830222635 86 328 7.0 7.0 0.00 0.00 0.00 38 1015.5
20260830222235 86 324 3.0 6.0 0.00 0.00 0.00 37 1015.6
20260830221835 86 220 5.0 5.0 0.00 0.00 0.00 37 1015.6
20260830221435 86 306 3.0 3.0 0.00 0.00 0.00 37 1015.7
20260830220635 85 270 1.0 3.0 0.00 0.00 0.00 39 1015.8
20260830215434 85 18 2.0 5.0 0.00 0.00 0.00 40 1016.0
20260830215034 84 317 0.0 3.0 0.00 0.00 0.00 40 1016.1
20260830214634 84 346 2.0 4.0 0.00 0.00 0.00 41 1016.1
20260830213434 83 45 2.0 5.0 0.00 0.00 0.00 41 1016.3
20260830212634 83 22 0.0 6.0 0.00 0.00 0.00 42 1016.5
20260830211833 82 252 4.0 7.0 0.00 0.00 0.00 42 1016.6
20260830211433 82 315 6.0 6.0 0.00 0.00 0.00 42 1016.5
20260830211033 82 294 4.0 5.0 0.00 0.00 0.00 42 1016.7
20260830210633 82 9 2.0 5.0 0.00 0.00 0.00 43 1016.8
20260830205432 81 0 4.0 6.0 0.00 0.00 0.00 45 1016.8
20260830205032 81 270 2.0 6.0 0.00 0.00 0.00 46 1016.8
20260830204632 81 250 1.0 6.0 0.00 0.00 0.00 46 1016.8
20260830204232 81 324 3.0 6.0 0.00 0.00 0.00 45 1016.8
20260830203832 80 0 3.0 4.0 0.00 0.00 0.00 46 1016.9
20260830203432 80 308 4.0 7.0 0.00 0.00 0.00 46 1017.0
20260830202231 79 348 2.0 5.0 0.00 0.00 0.00 49 1017.0
20260830201431 79 329 3.0 7.0 0.00 0.00 0.00 49 1017.1
20260830201031 79 353 5.0 5.0 0.00 0.00 0.00 49 1017.1
20260830200631 78 297 2.0 6.0 0.00 0.00 0.00 49 1017.1
20260830200230 78 234 5.0 7.0 0.00 0.00 0.00 50 1017.2
20260830195430 78 346 2.0 5.0 0.00 0.00 0.00 51 1017.3
20260830195030 78 301 3.0 6.0 0.00 0.00 0.00 51 1017.5
20260830194227 77 317 2.0 6.0 0.00 0.00 0.00 51 1017.5
20260830193827 77 56 1.0 7.0 0.00 0.00 0.00 52 1017.5
20260830193426 77 342 3.0 6.0 0.00 0.00 0.00 51 1017.5
20260830193026 76 225 1.0 3.0 0.00 0.00 0.00 53 1017.6
20260830192626 76 185 2.0 7.0 0.00 0.00 0.00 53 1017.6
20260830191026 75 261 2.0 5.0 0.00 0.00 0.00 54 1017.7
20260830190225 75 297 2.0 5.0 0.00 0.00 0.00 55 1017.8
20260830185425 74 45 3.0 6.0 0.00 0.00 0.00 55 1017.9
20260830185025 74 276 1.0 6.0 0.00 0.00 0.00 55 1017.9
20260830184625 74 319 5.0 5.0 0.00 0.00 0.00 55 1018.0
20260830183424 73 250 0.0 8.0 0.00 0.00 0.00 57 1018.1
20260830182624 73 357 2.0 3.0 0.00 0.00 0.00 57 1018.1
20260830181824 72 202 1.0 6.0 0.00 0.00 0.00 57 1018.1
20260830181423 72 270 2.0 6.0 0.00 0.00 0.00 57 1018.1
20260830180622 72 315 0.0 4.0 0.00 0.00 0.00 57 1018.0
20260830180222 72 202 1.0 4.0 0.00 0.00 0.00 57 1018.1
20260830175822 71 357 4.0 6.0 0.00 0.00 0.00 56 1018.1
20260830175422 71 342 4.0 6.0 0.00 0.00 0.00 56 1018.1
20260830175023 71 315 4.0 6.0 0.00 0.00 0.00 57 1018.2
20260830174622 71 9 6.0 6.0 0.00 0.00 0.00 57 1018.2
20260830173822 70 15 4.0 5.0 0.00 0.00 0.00 58 1018.2
20260830173021 70 312 6.0 6.0 0.00 0.00 0.00 58 1018.3
20260830172621 70 342 2.0 3.0 0.00 0.00 0.00 59 1018.2
20260830172221 69 4 2.0 5.0 0.00 0.00 0.00 60 1018.2
20260830171821 69 229 1.0 6.0 0.00 0.00 0.00 59 1018.3
20260830171421 69 0 0.0 7.0 0.00 0.00 0.00 59 1018.2
20260830171021 69 319 5.0 6.0 0.00 0.00 0.00 59 1018.3
20260830170222 69 24 1.0 6.0 0.00 0.00 0.00 61 1018.2
20260830165820 68 315 1.0 5.0 0.00 0.00 0.00 60 1018.2
20260830165420 68 348 3.0 6.0 0.00 0.00 0.00 61 1018.2
20260830165021 68 353 5.0 5.0 0.00 0.00 0.00 62 1018.1
20260830164620 68 315 5.0 6.0 0.00 0.00 0.00 61 1018.1
20260830164220 67 342 2.0 6.0 0.00 0.00 0.00 62 1018.1
20260830163020 67 270 2.0 4.0 0.00 0.00 0.00 62 1018.1
20260830162619 67 342 4.0 6.0 0.00 0.00 0.00 62 1018.1
20260830161819 66 353 1.0 4.0 0.00 0.00 0.00 63 1018.1
20260830161419 66 267 5.0 6.0 0.00 0.00 0.00 63 1018.2
20260830161018 66 31 4.0 6.0 0.00 0.00 0.00 64 1018.1
20260830160618 65 2 4.0 5.0 0.00 0.00 0.00 65 1018.1
20260830155418 65 45 2.0 5.0 0.00 0.00 0.00 66 1018.1
20260830155018 65 270 3.0 4.0 0.00 0.00 0.00 66 1018.1
20260830154618 65 292 3.0 7.0 0.00 0.00 0.00 66 1018.3
20260830154217 64 279 3.0 6.0 0.00 0.00 0.00 67 1018.3
20260830153817 64 288 1.0 6.0 0.00 0.00 0.00 67 1018.2
20260830153017 64 0 5.0 5.0 0.00 0.00 0.00 68 1018.0
20260830152617 64 283 4.0 5.0 0.00 0.00 0.00 68 1018.2
20260830152217 63 355 4.0 5.0 0.00 0.00 0.00 69 1018.2
20260830151817 63 337 3.0 4.0 0.00 0.00 0.00 69 1018.1
20260830151016 63 355 5.0 6.0 0.00 0.00 0.00 70 1018.1
20260830150616 63 333 5.0 7.0 0.00 0.00 0.00 70 1018.1
20260830150217 62 267 3.0 5.0 0.00 0.00 0.00 71 1018.1
20260830145816 62 346 2.0 6.0 0.00 0.00 0.00 71 1018.0
20260830145416 62 292 2.0 4.0 0.00 0.00 0.00 71 1017.8
20260830145016 62 345 4.0 4.0 0.00 0.00 0.00 71 1017.8
20260830144615 62 249 2.0 5.0 0.00 0.00 0.00 71 1017.8
20260830144215 62 0 1.0 5.0 0.00 0.00 0.00 72 1017.8
20260830143817 62 310 2.0 6.0 0.00 0.00 0.00 70 1017.7
20260830143415 62 319 4.0 6.0 0.00 0.00 0.00 71 1017.7
20260830143015 62 270 4.0 6.0 0.00 0.00 0.00 71 1017.7
20260830142615 62 267 2.0 10.0 0.00 0.00 0.00 71 1017.6
20260830141814 61 315 3.0 4.0 0.00 0.00 0.00 70 1017.6
20260830141415 61 315 3.0 3.0 0.00 0.00 0.00 70 1017.6
20260830141014 61 270 1.0 4.0 0.00 0.00 0.00 69 1017.5
20260830140614 61 270 2.0 3.0 0.00 0.00 0.00 70 1017.6
20260830140215 61 0 2.0 4.0 0.00 0.00 0.00 70 1017.5
20260830135814 61 225 2.0 4.0 0.00 0.00 0.00 69 1017.5
20260830135414 61 282 1.0 2.0 0.00 0.00 0.00 70 1017.3
20260830135013 61 315 1.0 2.0 0.00 0.00 0.00 69 1017.2
20260830134613 61 315 1.0 3.0 0.00 0.00 0.00 69 1017.2
20260830134213 61 22 1.0 3.0 0.00 0.00 0.00 69 1017.2
20260830133813 61 328 2.0 3.0 0.00 0.00 0.00 69 1017.1
20260830133413 62 27 2.0 3.0 0.00 0.00 0.00 69 1017.2
20260830132613 62 315 1.0 3.0 0.00 0.00 0.00 68 1017.2